Flag for Canada Weather past 2 weeks in Fort Smith, Northwest Territories, Canada

Now
9 °F

Broken clouds.


Feels Like: -1 °F
Forecast: 1 / 14 °F
Wind: 6 mph from Southeast

Location: Fort Smith

Current Time: Dec 18, 2014 at 10:53:31 AM

Latest Report: Dec 18, 2014 at 10:00 AM


Visibility: 15 mi

Pressure: 29.83 "Hg

Humidity: 85%

Dew point: 5 °F

Location of Fort SmithLocation

Historic Weather in Fort Smith — Graph

°F

Fort Smith temperature yesterday

Maximum temperature yesterday: 16 °F (at 12:00 PM)
Minimum temperature yesterday: 10 °F (at 12:00 AM)
Average temperature yesterday: 14 °F

Past Weeks' High & Low Weather Summary

 TemperatureHumidityPressure
High23 °F (Dec 9, 2:00 PM)100% (Dec 10, 12:00 AM)30.47 "Hg (Dec 10, 12:00 AM)
Low-22 °F (Dec 5, 9:00 AM)68% (Dec 5, 6:00 PM)29.29 "Hg (Dec 10, 12:00 AM)
Average4 °F84%29.96 "Hg
* Reported Dec 3 9:00 AM — Dec 18 9:00 AM, Fort Smith, Weather by CustomWeather, © 2014

Note: Actual official high and low records may vary slightly from our data, if they occured in-between our weather recording intervals... More about our weather records

Advertising

Fort Smith weather history for previous 24 hours

 ConditionsComfort  
Time TempWeatherWind HumidityBarometerVisibility
9:00 AM
Dec 18
9 °FPartly cloudy.5 mph92%29.81 "Hg15 mi
8:00 AM9 °FPartly cloudy.6 mph92%29.80 "Hg15 mi
7:00 AM9 °FPassing clouds.6 mph85%29.79 "Hg15 mi
6:00 AM9 °FPassing clouds.7 mph92%29.80 "Hg15 mi
5:00 AM10 °FPassing clouds.5 mph92%29.79 "Hg15 mi
4:00 AM10 °FPassing clouds.7 mph92%29.79 "Hg15 mi
3:00 AM12 °FPassing clouds.7 mph92%29.79 "Hg15 mi
2:00 AM12 °FPassing clouds.5 mph92%29.78 "Hg15 mi
1:00 AM14 °FPassing clouds.6 mph92%29.78 "Hg15 mi
12:00 AM14 °FPassing clouds.6 mph92%29.79 "Hg15 mi
11:00 PM
Dec 17
16 °FPassing clouds.5 mph86%29.79 "Hg15 mi
10:00 PM16 °FPassing clouds.5 mph86%29.80 "Hg15 mi
9:00 PM16 °FPassing clouds.8 mph86%29.79 "Hg15 mi
8:00 PM16 °FPassing clouds.7 mph86%29.80 "Hg15 mi
7:00 PM14 °FPassing clouds.7 mph92%29.81 "Hg15 mi
6:00 PM16 °FPassing clouds.7 mph86%29.82 "Hg15 mi
5:00 PM16 °FPassing clouds.7 mph86%29.82 "Hg15 mi
4:00 PM14 °FPassing clouds.8 mph92%29.83 "Hg15 mi
3:00 PM16 °FPassing clouds.9 mph93%29.83 "Hg15 mi
2:00 PM16 °FPassing clouds.10 mph93%29.83 "Hg15 mi
1:00 PM16 °FPassing clouds.13 mph86%29.83 "Hg15 mi
12:00 PM16 °FPassing clouds.13 mph86%29.83 "Hg15 mi
11:00 AM14 °FPartly sunny.10 mph85%29.84 "Hg15 mi
10:00 AM12 °FScattered clouds.10 mph85%29.85 "Hg15 mi
Weather by CustomWeather, © 2014

See weather overviewHow to use our weather pages